RYR7GR EHEH-EGSS

Flight info

Callsign RYR7GR
Flight time N/A
Altitude 24000
Route ABNED L980 XAMAN
Aircraft B738/M-SDE3FGILRWY/SB1

Departure

Time N/A
Airport Eindhoven Airport (EHEH)

Arrival

Time 2026-05-03 20:27
Airport London Stansted Airport (EGSS)
Time Latitude Longitude Altitude Speed Heading
2026-05-03 20:15 51.99365 0.17748 6278 ft 201 kts 216°
2026-05-03 20:15 51.98240 0.16411 6170 ft 200 kts 216°
2026-05-03 20:15 51.97109 0.15073 6048 ft 202 kts 216°
2026-05-03 20:15 51.95966 0.13725 6015 ft 204 kts 216°
2026-05-03 20:16 51.94819 0.12372 6002 ft 203 kts 216°
2026-05-03 20:16 51.93679 0.11027 5991 ft 202 kts 216°
2026-05-03 20:16 51.92550 0.09696 5913 ft 199 kts 216°
2026-05-03 20:16 51.91437 0.08384 5596 ft 198 kts 216°
2026-05-03 20:17 51.90320 0.07069 5107 ft 200 kts 216°
2026-05-03 20:17 51.89189 0.05741 4656 ft 201 kts 216°
2026-05-03 20:17 51.88065 0.04423 4239 ft 198 kts 216°
2026-05-03 20:17 51.86960 0.03136 3760 ft 199 kts 216°
2026-05-03 20:18 51.85822 0.01822 3295 ft 198 kts 216°
2026-05-03 20:18 51.84570 0.00973 2928 ft 195 kts 183°
2026-05-03 20:18 51.83246 0.01181 2738 ft 193 kts 172°
2026-05-03 20:18 51.81939 0.01525 2497 ft 192 kts 171°
2026-05-03 20:19 51.80666 0.01871 2353 ft 183 kts 171°
2026-05-03 20:19 51.79443 0.02210 2226 ft 175 kts 171°
2026-05-03 20:19 51.78240 0.02551 2164 ft 176 kts 171°
2026-05-03 20:19 51.77018 0.02910 2047 ft 175 kts 171°
2026-05-03 20:20 51.75848 0.03260 2000 ft 172 kts 171°
2026-05-03 20:20 51.74689 0.03602 1989 ft 168 kts 171°
2026-05-03 20:20 51.73550 0.03947 1988 ft 165 kts 171°
2026-05-03 20:20 51.72423 0.04307 1988 ft 166 kts 171°
2026-05-03 20:21 51.71271 0.04682 1984 ft 167 kts 171°
2026-05-03 20:21 51.70136 0.05054 1979 ft 166 kts 170°
2026-05-03 20:21 51.69121 0.05923 1961 ft 170 kts 129°
2026-05-03 20:21 51.68757 0.07648 1967 ft 170 kts 85°
2026-05-03 20:22 51.69258 0.09398 1990 ft 180 kts 42°
2026-05-03 20:22 51.70367 0.10207 1982 ft 176 kts
2026-05-03 20:22 51.71579 0.10324 1993 ft 174 kts
2026-05-03 20:22 51.72775 0.10419 1984 ft 171 kts
2026-05-03 20:23 51.73966 0.10514 1985 ft 168 kts
2026-05-03 20:23 51.75130 0.10607 1982 ft 167 kts
2026-05-03 20:23 51.76312 0.10706 2004 ft 173 kts
2026-05-03 20:23 51.77518 0.10796 1999 ft 173 kts 360°
2026-05-03 20:24 51.78724 0.10893 1999 ft 173 kts
2026-05-03 20:24 51.79925 0.11065 1985 ft 175 kts 13°
2026-05-03 20:24 51.80906 0.12159 2024 ft 172 kts 43°
2026-05-03 20:24 51.81807 0.13442 1930 ft 173 kts 40°
2026-05-03 20:25 51.82686 0.14729 1724 ft 166 kts 42°
2026-05-03 20:25 51.83506 0.15963 1503 ft 155 kts 42°
2026-05-03 20:25 51.84290 0.17143 1321 ft 157 kts 42°
2026-05-03 20:25 51.85086 0.18345 1091 ft 153 kts 43°
2026-05-03 20:26 51.85848 0.19498 861 ft 151 kts 42°
2026-05-03 20:26 51.86611 0.20634 672 ft 148 kts 43°
2026-05-03 20:26 51.87373 0.21782 465 ft 147 kts 42°
2026-05-03 20:26 51.88102 0.22881 330 ft 140 kts 43°
2026-05-03 20:27 51.88663 0.23723 339 ft 85 kts 43°
2026-05-03 20:27 51.88978 0.24199 351 ft 42 kts 46°
2026-05-03 20:27 51.89090 0.24500 352 ft 29 kts 65°
2026-05-03 20:27 51.89155 0.24758 355 ft 16 kts 68°
2026-05-03 20:28 51.89167 0.24845 348 ft 3 kts 101°
2026-05-03 20:28 51.89162 0.24863 351 ft 0 kts 116°
2026-05-03 20:28 51.89159 0.24872 356 ft 3 kts 119°
2026-05-03 20:28 51.89150 0.24899 355 ft 3 kts 113°
2026-05-03 20:29 51.89152 0.24928 353 ft 3 kts 75°
2026-05-03 20:29 51.89157 0.24946 355 ft 3 kts 62°
2026-05-03 20:29 51.89170 0.24969 353 ft 4 kts 44°
2026-05-03 20:29 51.89201 0.25021 351 ft 10 kts 49°
2026-05-03 20:30 51.89251 0.25145 358 ft 17 kts 56°
2026-05-03 20:30 51.89342 0.25299 354 ft 20 kts 42°
2026-05-03 20:30 51.89416 0.25457 351 ft 17 kts 92°
2026-05-03 20:30 51.89368 0.25604 351 ft 15 kts 122°
2026-05-03 20:31 51.89339 0.25693 356 ft 5 kts 59°
2026-05-03 20:31 51.89360 0.25725 354 ft 2 kts 43°
2026-05-03 20:31 51.89366 0.25735 351 ft 1 kts 43°
2026-05-03 20:31 51.89367 0.25736 351 ft 0 kts 43°